Location: Dana
(41.8364°N, 106.7042°W)
Time: 01:53:40
(UTC+00:00)

Altair - Pass Details

Date: 18 May 2026
Orbit: 1501 x 1682 km, 47.2° (Epoch: 6 June)

Event Time Altitude Azimuth Distance (km) Brightness Sun altitude
Rises 19:49:41 0° 289° (WNW) 4,937 10.2 65.8°
Reaches altitude 10° 19:54:44 10° 268° (W) 3,934 10.0 65.3°
Maximum altitude 19:59:43 15° 238° (WSW) 3,518 10.0 64.8°
Drops below altitude 10° 20:04:41 10° 207° (SSW) 3,880 10.2 64.3°
Sets 20:09:40 0° 186° (S) 4,828 10.4 63.8°
